Weather History for Wahoo, NE

Change the Weather History Date:

Monday, March 18, 2013

  Actual Average Record
Temperature  
Mean Temperature 33 °F -  
Max Temperature 38 °F 51 °F 81 °F (2012)
Min Temperature 28 °F 28 °F 4 °F (1965)
Degree Days  
Heating Degree Days 32    
Moisture  
Dew Point 22 °F    
Average Humidity 65    
Maximum Humidity 95    
Minimum Humidity 38    
Precipitation  
Precipitation 0.00 in - - ()
Sea Level Pressure  
Sea Level Pressure 29.88 in    
Wind  
Wind Speed 16 mph (WNW)    
Max Wind Speed 31 mph    
Max Gust Speed 41 mph    
Visibility 9 miles    
Events Snow    
Averages and records for this station are not official NWS values.
T = Trace of Precipitation, MM = Missing Value Source: NWS Daily Summary

Daily Weather History Graph

Daily Weather History Graph

Search for Another Location

Airport:

Trip Planner

Search our weather history database for the weather conditions in past years. The results will help you decide how hot, cold, wet, or windy it might be!

Date:

Astronomy

Mar. 18, 2013 Rise Set
Actual Time 7:32 AM CDT 7:36 PM CDT
Civil Twilight 7:05 AM CDT 8:04 PM CDT
Nautical Twilight 6:33 AM CDT 8:36 PM CDT
Astronomical Twilight 6:00 AM CDT 9:09 PM CDT
Moon 11:29 AM CDT (3/18) 1:40 AM CDT (3/18)
Length of Visible Light 12h 59m
Length of Day
12h 04m
Waxing Crescent, 41% of the Moon is Illuminated
Mar 18
Waxing Crescent
Mar 19
First Quarter
Mar 27
Full
Apr 2
Last Quarter
Apr 10
New

Hourly Weather History & Observations

Time (CDT) Temp. Windchill Dew Point Humidity Pressure Visibility Wind Dir Wind Speed Gust Speed Precip Events Conditions
12:15 AM 33.4 °F 25.9 °F 32.0 °F 94% 29.77 in 2.5 mi SE 9.2 mph - N/A   Overcast
12:35 AM 33.3 °F 21.8 °F 32.0 °F 95% 29.73 in 2.0 mi SE 19.6 mph - N/A Snow Light Snow
12:55 AM 33.3 °F 23.7 °F 32.0 °F 95% 29.72 in 2.5 mi SE 13.8 mph 18.4 mph N/A Snow Light Snow
1:15 AM 33.4 °F 22.7 °F 32.2 °F 95% 29.72 in 5.0 mi SE 17.3 mph 20.7 mph N/A   Overcast
1:35 AM 33.8 °F 23.5 °F 32.4 °F 94% 29.71 in 5.0 mi SSE 16.1 mph 21.9 mph N/A   Overcast
1:55 AM 33.4 °F 24.3 °F 32.0 °F 94% 29.72 in 5.0 mi SSE 12.7 mph - N/A   Overcast
2:15 AM 33.8 °F 26.4 °F 32.0 °F 93% 29.74 in 5.0 mi South 9.2 mph - N/A   Overcast
2:35 AM 34.0 °F 26.6 °F 32.4 °F 94% 29.78 in 7.0 mi SW 9.2 mph - N/A   Overcast
2:55 AM 34.3 °F 28.4 °F 32.5 °F 93% 29.79 in 7.0 mi WSW 6.9 mph - N/A   Overcast
3:15 AM 34.7 °F 30.6 °F 32.5 °F 92% 29.78 in 5.0 mi SW 4.6 mph - N/A   Overcast
3:35 AM 34.7 °F 29.6 °F 32.9 °F 93% 29.77 in 3.0 mi SSW 5.8 mph - N/A   Light Drizzle
3:55 AM 34.7 °F 28.1 °F 32.9 °F 93% 29.76 in 3.0 mi SW 8.1 mph - N/A   Overcast
4:15 AM 34.9 °F 29.0 °F 33.1 °F 93% 29.76 in 2.5 mi SW 6.9 mph - N/A   Overcast
4:35 AM 35.1 °F 28.6 °F 33.6 °F 94% 29.74 in 2.5 mi SW 8.1 mph - N/A   Light Drizzle
4:55 AM 35.4 °F 28.4 °F 33.8 °F 94% 29.75 in 3.0 mi WSW 9.2 mph - N/A   Overcast
5:15 AM 35.8 °F 29.4 °F 34.2 °F 94% 29.75 in 5.0 mi WSW 8.1 mph - N/A   Overcast
5:35 AM 36.7 °F 27.6 °F 34.7 °F 93% 29.76 in 7.0 mi West 15.0 mph 18.4 mph N/A   Overcast
5:55 AM 36.7 °F 26.9 °F 31.5 °F 81% 29.77 in 10.0 mi WNW 17.3 mph 25.3 mph N/A   Mostly Cloudy
6:15 AM 35.6 °F 26.6 °F 29.8 °F 80% 29.77 in 10.0 mi WNW 13.8 mph - N/A   Clear
6:35 AM 35.1 °F 24.8 °F 28.8 °F 78% 29.78 in 10.0 mi NW 17.3 mph 23.0 mph N/A   Clear
6:55 AM 34.7 °F 25.9 °F 28.2 °F 77% 29.79 in 10.0 mi WNW 12.7 mph - N/A   Clear
7:15 AM 32.9 °F 20.4 °F 24.1 °F 70% 29.80 in 10.0 mi WNW 23.0 mph 32.2 mph N/A   Clear
7:35 AM 32.0 °F 20.5 °F 23.7 °F 71% 29.81 in 10.0 mi NW 18.4 mph 26.5 mph N/A   Clear
7:55 AM 31.6 °F 19.3 °F 22.3 °F 68% 29.82 in 10.0 mi NW 20.7 mph 28.8 mph N/A   Clear
8:15 AM 31.5 °F 20.1 °F 21.7 °F 67% 29.82 in 10.0 mi NW 17.3 mph 25.3 mph N/A   Clear
8:35 AM 32.0 °F 20.5 °F 19.9 °F 61% 29.82 in 10.0 mi NW 18.4 mph 27.6 mph N/A   Clear
8:55 AM 32.0 °F 20.1 °F 20.7 °F 63% 29.83 in 10.0 mi NW 19.6 mph 26.5 mph N/A   Clear
9:15 AM 32.4 °F 20.0 °F 20.3 °F 61% 29.83 in 10.0 mi NW 21.9 mph 27.6 mph N/A   Clear
9:35 AM 32.9 °F 19.8 °F 19.8 °F 59% 29.84 in 10.0 mi NW 25.3 mph 34.5 mph N/A   Clear
9:55 AM 32.9 °F 19.8 °F 19.8 °F 59% 29.85 in 10.0 mi NW 25.3 mph 34.5 mph N/A   Clear
10:15 AM 33.4 °F 20.1 °F 20.3 °F 59% 29.86 in 10.0 mi WNW 27.6 mph 34.5 mph N/A   Clear
10:35 AM 33.3 °F 20.6 °F 20.5 °F 59% 29.87 in 10.0 mi WNW 24.2 mph 36.8 mph N/A   Clear
10:55 AM 34.0 °F 21.3 °F 20.8 °F 59% 29.88 in 10.0 mi WNW 25.3 mph 40.3 mph N/A   Clear
11:15 AM 34.7 °F 22.2 °F 21.6 °F 59% 29.88 in 10.0 mi WNW 25.3 mph 34.5 mph N/A   Clear
11:35 AM 35.2 °F 22.3 °F 20.5 °F 55% 29.88 in 10.0 mi WNW 28.8 mph 40.3 mph N/A   Clear
11:55 AM 35.1 °F 22.7 °F 20.7 °F 56% 29.89 in 10.0 mi NW 25.3 mph 34.5 mph N/A   Scattered Clouds
12:15 PM 34.7 °F 21.5 °F 20.1 °F 55% 29.90 in 10.0 mi NW 28.8 mph 33.4 mph N/A   Clear
12:35 PM 35.2 °F 21.8 °F 18.9 °F 51% 29.90 in 10.0 mi NW 31.1 mph 40.3 mph N/A   Clear
12:55 PM 35.8 °F 23.7 °F 18.9 °F 50% 29.91 in 10.0 mi WNW 25.3 mph 41.4 mph N/A   Clear
1:15 PM 35.6 °F 23.7 °F 19.0 °F 51% 29.91 in 10.0 mi NW 24.2 mph 35.7 mph N/A   Scattered Clouds
1:35 PM 36.5 °F 25.2 °F 18.7 °F 49% 29.92 in 10.0 mi WNW 23.0 mph 36.8 mph N/A   Scattered Clouds
1:55 PM 36.9 °F 24.4 °F 18.1 °F 47% 29.92 in 10.0 mi WNW 28.8 mph 36.8 mph N/A   Scattered Clouds
2:15 PM 37.8 °F 26.1 °F 19.8 °F 48% 29.92 in 10.0 mi WNW 26.5 mph 35.7 mph N/A   Scattered Clouds
2:35 PM 36.9 °F 24.4 °F 16.9 °F 44% 29.92 in 10.0 mi WNW 28.8 mph 39.1 mph N/A   Scattered Clouds
2:55 PM 37.4 °F 25.4 °F 17.6 °F 45% 29.92 in 10.0 mi WNW 27.6 mph 35.7 mph N/A   Clear
3:15 PM 38.1 °F 27.1 °F 18.3 °F 45% 29.92 in 10.0 mi WNW 24.2 mph 33.4 mph N/A   Clear
3:35 PM 37.6 °F 26.9 °F 17.2 °F 44% 29.92 in 10.0 mi NW 21.9 mph 34.5 mph N/A   Clear
3:55 PM 37.6 °F 26.6 °F 16.2 °F 42% 29.93 in 10.0 mi WNW 23.0 mph 32.2 mph N/A   Clear
4:15 PM 38.3 °F 28.1 °F 17.4 °F 43% 29.94 in 10.0 mi NW 20.7 mph 32.2 mph N/A   Clear
4:35 PM 38.5 °F 28.1 °F 16.2 °F 40% 29.94 in 10.0 mi NW 21.9 mph 32.2 mph N/A   Clear
4:55 PM 38.1 °F 27.1 °F 15.4 °F 40% 29.95 in 10.0 mi NW 24.2 mph 32.2 mph N/A   Clear
5:15 PM 38.3 °F 27.8 °F 15.6 °F 40% 29.95 in 10.0 mi NW 21.9 mph 31.1 mph N/A   Clear
5:35 PM 37.8 °F 27.1 °F 14.2 °F 38% 29.95 in 10.0 mi NW 21.9 mph 34.5 mph N/A   Clear
5:55 PM 37.6 °F 26.9 °F 14.4 °F 39% 29.96 in 10.0 mi NW 21.9 mph 28.8 mph N/A   Clear
6:15 PM 37.4 °F 26.9 °F 14.2 °F 39% 29.96 in 10.0 mi NW 20.7 mph 27.6 mph N/A   Clear
6:35 PM 36.7 °F 26.3 °F 14.4 °F 40% 29.97 in 10.0 mi NW 19.6 mph 25.3 mph N/A   Clear
6:55 PM 36.3 °F 26.4 °F 14.0 °F 40% 29.97 in 10.0 mi NW 17.3 mph 27.6 mph N/A   Clear
7:15 PM 35.4 °F 26.0 °F 14.0 °F 41% 29.98 in 10.0 mi NW 15.0 mph 23.0 mph N/A   Clear
7:35 PM 33.8 °F 25.8 °F 15.3 °F 47% 29.99 in 10.0 mi NW 10.4 mph - N/A   Clear
7:55 PM 32.9 °F 24.1 °F 16.7 °F 51% 30.00 in 10.0 mi NW 11.5 mph - N/A   Clear
8:15 PM 32.0 °F 24.2 °F 17.6 °F 55% 30.01 in 10.0 mi NW 9.2 mph - N/A   Clear
8:35 PM 30.7 °F 23.3 °F 18.0 °F 59% 30.02 in 10.0 mi NW 8.1 mph - N/A   Clear
8:55 PM 30.6 °F 23.8 °F 17.2 °F 58% 30.00 in 10.0 mi NNW 6.9 mph - N/A   Clear
9:15 PM 29.5 °F 23.4 °F 18.1 °F 63% 30.00 in 10.0 mi NW 5.8 mph - N/A   Clear
9:35 PM 28.2 °F 22.0 °F 18.1 °F 66% 30.02 in 10.0 mi NW 5.8 mph - N/A   Clear
9:55 PM 28.6 °F 20.7 °F 18.7 °F 66% 30.02 in 10.0 mi WNW 8.1 mph - N/A   Clear
10:15 PM 29.3 °F 23.2 °F 18.3 °F 64% 30.03 in 10.0 mi West 5.8 mph - N/A   Clear
10:55 PM 28.9 °F 22.8 °F 18.0 °F 64% 30.04 in 10.0 mi West 5.8 mph - N/A   Clear
11:15 PM 28.2 °F 21.0 °F 18.0 °F 65% 30.04 in 10.0 mi West 6.9 mph - N/A   Clear
11:35 PM 28.6 °F 21.5 °F 18.5 °F 66% 30.04 in 10.0 mi West 6.9 mph - N/A   Clear
11:55 PM 29.8 °F 22.2 °F 18.5 °F 63% 30.06 in 10.0 mi WNW 8.1 mph - N/A   Clear